Hourly Weather Roundup
Issued by NWS Central Illinois

Home | Current Version | Previous Version | Text Only | Print | Product List | Glossary On
Versions: 1 2 3 4 5 6 7 8 9 10 11 12 13 14 15 16 17 18 19 20 21 22 23 24 25 26 27 28 29 30 31 32 33 34 35 36 37 38 39 40 41 42 43 44 45 46 47 48 49 50
000
NZUS43 KILX 251710
HWRILX

Area Weather Roundup
National Weather Service Lincoln IL
1200 PM CDT TUE APR 25 2017

NOTE:  "FAIR" indicates few or no clouds below 12,000 feet, with
       no sigificant weather and/or obstructions to visibility.


CITY           SKY/WX    TMP DP  RH WIND       PRES   REMARKS
Bloomington    SUNNY     75  51  43 S21G29    29.66F
Champaign      SUNNY     76  49  38 S17G25    29.69F
Danville       SUNNY     74  52  47 S14G21    29.69F
Decatur        SUNNY     74  55  51 S15G24    29.68F
Effingham      SUNNY     74  56  52 SE14G21   29.71F
Flora          SUNNY     75  58  55 S14       29.71F
Galesburg      CLOUDY    69  46  43 SE6       29.59F
Jacksonville   PTSUNNY   73  45  37 S13       29.61F
Lacon          MOSUNNY   73  50  43 S13       29.63F
Lawrenceville  SUNNY     74  55  51 S12G20    29.73F
Litchfield     MOSUNNY   74  50  42 S18G24    29.66F
$$


CITY           SKY/WX    TMP DP  RH WIND       PRES   REMARKS
Lincoln        SUNNY     76  47  35 S10G21    29.64F
Macomb         CLOUDY    71  45  38 SE12      29.60F
Mattoon        SUNNY     72  55  55 S14G23    29.70F
Mt Carmel AP   SUNNY     73  52  46 S9        29.73F
Olney-Noble AP SUNNY     73  56  56 SE12G21   29.72F
Paris AP       MOSUNNY   74  55  51 S15       29.73F
Peoria         MOSUNNY   73  43  33 S16       29.63F
Pontiac        SUNNY     77  50  39 S20       29.67F
Rantoul        SUNNY     77  52  41 S15G21    29.69F
Robinson       MOSUNNY   73  54  51 S8G18     29.74F
Springfield    MOSUNNY   77  46  33 S15       29.64F
Taylorville    SUNNY     76  49  38 S17       29.66F
$$

...REGIONAL REPORTS...


CITY           SKY/WX    TMP DP  RH WIND       PRES   REMARKS
Chicago O`Hare CLOUDY    74  49  41 S14       29.67F
Kankakee       MOSUNNY   78  51  38 S12G22    29.69F
Moline         CLOUDY    70  44  39 S10       29.60F
Mount Sterling CLOUDY    70  48  45 SE14      29.56F
Mount Vernon   SUNNY     75  57  53 S10       29.70F
Pittsfield     CLOUDY    71  49  45 SE14      29.60F
Quincy         MOSUNNY   69  49  48 SE15      29.56F
Rockford       CLOUDY    73  46  38 S16G29    29.64F
$$


CITY           SKY/WX    TMP DP  RH WIND       PRES   REMARKS
Burlington     PTSUNNY   69  49  48 SE14      29.56F
Cedar Rapids   CLOUDY    63  49  60 E9        29.52F
Des Moines     PTSUNNY   67  47  48 SE8       29.49F
Kirksville     MOSUNNY   72  48  42 SE20G26   29.50F
Ottumwa        MOSUNNY   70  47  43 S12       29.51F
St Louis       CLOUDY    73  49  42 S14       29.63F
$$


CITY           SKY/WX    TMP DP  RH WIND       PRES   REMARKS
Terre Haute    MOSUNNY   73  55  53 S3        29.73F
Evansville     MOSUNNY   75  56  51 S8        29.75F
Indianapolis   MOSUNNY   70  54  56 VRB7      29.75F
Lafayette      SUNNY     72  53  51 MISG      29.73F
Madison        PTSUNNY   71  42  35 S14       29.61F
Milwaukee      PTSUNNY   63  51  65 SE14      29.68S
$$





USA.gov is the U.S. government's official web portal to all federal, state and local government web resources and services.